Location: Newark
(56.0692°N, 115.8617°E)
Time: 03:47:51
(UTC+00:00)

Vanguard 3 - Visible Passes

Search period start: 06 June 2020 00:00
Search period end: 16 June 2020 00:00
Orbit: 509 x 3261 km, 33.3° (Epoch: 05 June)

Date Brightness Start Highest point End Pass type
(mag) Time Alt. Az. Time Alt. Az. Time Alt. Az.
06 Jun 10.7 16:01:54 12° S 16:11:23 19° SSE 16:21:17 10° ESE visible
06 Jun 10.4 18:09:47 10° SW 18:23:52 28° S 18:34:36 10° ESE visible
07 Jun 10.9 14:49:05 10° SSE 14:56:40 14° SE 15:03:52 10° ESE visible
07 Jun 10.5 16:54:54 10° SSW 17:08:53 26° SSE 17:20:23 10° ESE visible
08 Jun 10.7 15:41:14 10° S 15:53:52 21° SSE 16:05:10 10° ESE visible
08 Jun 10.4 17:51:31 10° SW 18:06:33 30° S 18:18:19 10° ESE visible
09 Jun 10.8 14:29:30 10° S 14:39:03 16° SE 14:48:16 10° ESE visible
09 Jun 10.5 16:36:35 10° SSW 16:51:24 28° SSE 17:04:00 10° ESE visible
10 Jun 10.6 15:22:48 10° SSW 15:36:15 24° SSE 15:48:44 10° ESE visible
10 Jun 10.4 17:33:25 10° SW 17:49:06 32° S 18:01:50 10° ESE visible
11 Jun 10.8 14:10:39 10° S 14:21:23 18° SE 14:32:03 10° ESE visible
11 Jun 10.4 16:18:30 10° SW 16:33:48 30° SSE 16:47:24 10° ESE visible
12 Jun 10.6 15:04:41 10° SSW 15:18:34 26° SSE 15:32:03 10° ESE visible
12 Jun 10.4 17:15:31 10° SW 17:31:32 33° S 17:45:11 10° ESE visible
13 Jun 10.7 13:52:18 10° S 14:03:40 20° SE 14:15:25 10° ESE visible
13 Jun 10.4 16:00:41 10° SW 16:16:09 31° SSE 16:30:36 10° ESE visible
13 Jun 10.3 18:13:26 10° WSW 18:29:15 32° S 18:42:16 10° SE visible
14 Jun 10.5 14:46:52 10° SSW 15:00:52 27° SSE 15:15:07 10° ESE visible
14 Jun 10.4 16:57:49 10° SW 17:13:55 34° S 17:28:21 10° SE visible
15 Jun 10.4 15:43:04 10° SW 15:58:27 32° SSE 16:13:36 10° ESE visible
15 Jun 10.4 17:55:47 10° WSW 18:11:39 32° SSW 18:25:23 10° SE visible
